#timestamp,LO_Frequency,Hit,StdDev 
1501452015.2,286047002.4,N,1.0
1501452035.0,286047002.4,N,0.9
1501452035.9,286047002.4,N,0.9
1501452055.7,286046999.8,N,1.0
1501452075.6,286046999.9,N,1.1
1501452095.4,286047000.0,N,1.1
1501452115.3,286047000.8,N,1.0
1501452135.1,286047000.3,N,1.0
1501452155.8,286047000.5,N,1.0
1501452175.7,286047000.8,N,0.9
1501452195.5,286047001.1,N,0.9
1501452215.4,286046998.8,N,1.1
1501452235.2,286046998.4,N,1.2
1501452255.0,286046999.1,N,1.3
1501452255.9,286046999.1,N,1.4
1501452275.8,286046996.5,N,1.6
1501452295.6,286046999.5,N,1.6
1501452315.5,286046996.6,N,1.8
1501452335.3,286046996.6,N,1.9
1501452355.1,286046997.4,N,2.0
1501452375.9,286046997.5,N,2.0
1501452395.7,286046998.0,N,2.0
1501452415.6,286046997.4,N,2.1
1501452435.4,286046997.4,N,2.0
1501452455.2,286046997.4,N,2.0
1501452475.1,286046996.8,N,2.0
1501452476.0,286046996.8,N,2.0
1501452495.8,286046997.4,N,2.0
1501452515.7,286046997.8,N,1.9
1501452535.5,286046997.1,N,1.8
1501452555.3,286046997.6,N,1.7
1501452575.2,286046997.6,N,1.6
1501452595.0,286046994.9,P,1.8
1501452595.9,286046994.9,N,1.7
1501452615.8,286046999.6,N,2.1
1501452635.6,286046996.9,N,1.9
1501452655.4,286046997.1,N,1.7
1501452675.3,286046997.6,N,1.6
1501452695.1,286046997.1,N,1.5
1501452715.9,286046997.4,N,1.4
1501452735.7,286046997.8,N,1.4
1501452755.5,286046996.2,N,1.3
1501452775.4,286046995.1,P,1.0
1501452795.2,286046999.6,N,1.8
1501452815.1,286046999.6,N,1.9
1501452816.0,286046999.6,N,1.8
1501452835.8,286046996.9,N,1.7
1501452855.6,286046997.2,N,1.6
1501452875.5,286046996.6,N,1.6
1501452895.3,286046998.0,N,1.5
1501452915.2,286046996.9,N,1.4
1501452935.0,286046999.5,N,1.5
1501452935.9,286046999.5,N,1.5
1501452955.8,286046996.6,N,1.5
1501452975.6,286046996.5,N,1.5
1501452995.4,286046996.5,N,1.4
1501453015.3,286046996.6,N,1.4
1501453035.1,286046996.7,N,1.4
1501453055.8,286046997.8,N,1.4
1501453075.7,286046997.6,N,1.3
1501453095.5,286046995.4,P,1.1
1501453115.4,286046998.7,N,1.4
1501453135.2,286046998.5,N,1.3
1501453155.0,286047000.6,N,1.7
1501453155.9,286047000.6,N,1.8
1501453175.8,286046998.8,N,1.7
1501453195.6,286046999.0,N,1.6
1501453215.5,286046999.4,N,1.5
1501453235.3,286046998.4,N,1.4
1501453255.1,286046998.9,N,1.4
1501453275.9,286046999.0,N,1.3
1501453295.7,286046998.1,N,1.3
1501453315.6,286046999.4,N,1.2
1501453335.4,286046999.4,N,1.2
1501453355.2,286046999.6,N,1.2
1501453375.1,286046999.1,N,1.1
1501453376.0,286046999.1,N,1.1
1501453395.8,286046999.6,N,1.1
1501453415.7,286046996.8,N,1.2
1501453435.5,286046997.1,N,1.2
1501453455.3,286046997.2,N,1.2
1501453475.2,286046999.6,N,1.2
1501453495.0,286046999.3,N,1.2
1501453495.9,286046999.3,N,1.2
1501453515.7,286046999.4,N,1.1
1501453535.6,286046999.1,N,1.1
1501453555.4,286046999.5,N,1.1
1501453575.3,286046999.2,N,1.1
1501453595.1,286046996.5,P,1.2
1501453615.8,286046998.8,N,1.1
1501453635.7,286047001.1,N,1.6
1501453655.5,286046998.3,N,1.5
1501453675.4,286046998.3,N,1.3
1501453695.2,286046998.8,N,1.3
1501453715.0,286046998.5,N,1.2
1501453715.9,286046998.5,N,1.1
1501453735.8,286046999.1,N,1.1
1501453755.6,286046999.3,N,1.0
1501453775.5,286046998.8,N,1.0
1501453795.3,286046998.4,N,0.9
1501453815.1,286046998.2,N,0.9
1501453835.9,286047001.2,N,1.1
1501453855.7,286046998.1,N,1.1
1501453875.6,286047001.2,N,1.2
1501453895.4,286046999.7,N,1.2
1501453915.2,286047002.4,N,1.4
1501453935.1,286047002.7,N,1.5
1501453936.0,286047002.7,N,1.7
1501453955.8,286046999.7,N,1.6
1501453975.7,286047002.8,N,1.7
1501453995.5,286047000.1,N,1.7
1501454015.3,286047000.2,N,1.7
1501454035.2,286047002.4,N,1.7
1501454055.0,286047002.8,N,1.8
1501454055.9,286047002.8,N,1.8
1501454075.7,286047002.7,N,1.9
1501454095.6,286047002.7,N,1.9
1501454115.4,286047000.1,N,1.9
1501454135.3,286047002.3,N,1.8
1501454155.1,286047002.5,N,1.8
1501454175.8,286047002.7,N,1.8
1501454195.7,286047002.6,N,1.8
1501454215.5,286047002.6,N,1.8
1501454235.4,286047003.9,N,1.8
1501454255.2,286047001.4,N,1.7
1501454275.0,286047002.0,N,1.7
1501454275.9,286047002.0,N,1.6
1501454295.8,286047004.0,N,1.7
1501454315.6,286047001.4,N,1.6
1501454335.5,286047002.3,N,1.5
1501454355.3,286047001.9,N,1.3
1501454375.1,286047001.8,N,1.3
1501454395.9,286047003.6,N,1.1
1501454415.7,286047003.0,N,1.1
1501454435.6,286047004.1,P,1.0
1501454455.4,286046999.8,N,1.8
1501454475.3,286047002.0,N,1.5
1501454495.1,286046999.8,N,1.6
1501454496.0,286046999.8,N,1.6
1501454515.8,286047000.3,N,1.5
1501454535.7,286047000.6,N,1.4
1501454555.5,286047001.2,N,1.4
1501454575.4,286047000.4,N,1.3
1501454595.2,286047000.4,N,1.3
1501454615.0,286047000.2,N,1.2
1501454615.9,286047000.2,N,1.2
1501454635.8,286046999.8,N,1.2
1501454655.6,286047000.6,N,1.1
1501454675.5,286047000.5,N,1.1
1501454695.3,286047000.3,N,1.1
1501454715.1,286047002.5,N,1.1
1501454735.9,286047004.3,P,1.7
1501454755.7,286047002.6,N,1.4
1501454775.6,286047002.2,N,1.2
1501454795.4,286047001.5,N,1.2
1501454815.2,286047002.5,N,1.1
1501454835.1,286047002.6,N,1.0
1501454836.0,286047002.6,N,0.9
1501454855.8,286047002.2,N,0.9
1501454875.7,286047001.6,N,0.9
1501454895.5,286047004.3,P,1.0
1501454915.3,286047000.0,N,1.8
1501454935.2,286046999.7,N,1.9
1501454955.0,286047002.5,N,1.7
1501454955.9,286047002.5,N,1.6
1501454975.8,286046999.7,N,1.7
1501454995.6,286047001.2,N,1.6
1501455015.4,286047000.1,N,1.5
1501455035.3,286047000.9,N,1.5
1501455055.1,286047000.0,N,1.4
1501455075.9,286047001.0,N,1.4
1501455095.7,286046999.7,N,1.4
1501455115.5,286047000.2,N,1.4
1501455135.4,286046999.8,N,1.3
1501455155.2,286047002.6,N,1.4
1501455175.1,286047002.1,N,1.3
1501455176.0,286047002.1,N,1.3
1501455195.8,286047002.5,N,1.3
1501455215.6,286047002.3,N,1.3
1501455235.5,286046999.9,N,1.3
1501455255.3,286047000.6,N,1.3
1501455275.2,286047000.3,N,1.3
1501455295.9,286047000.9,N,1.2
1501455315.7,286046998.1,N,1.4
1501455335.6,286047000.6,N,1.3
1501455355.4,286046998.1,N,1.4
1501455375.3,286046999.9,N,1.4
1501455395.1,286047001.2,N,1.4
1501455396.0,286047001.2,N,1.4
1501455415.8,286047000.3,N,1.3
1501455435.7,286047000.1,N,1.2
1501455455.5,286046999.7,N,1.2
1501455475.4,286047002.2,N,1.2
1501455495.2,286047001.7,N,1.2
1501455515.0,286047001.3,N,1.1
1501455515.9,286047001.3,N,1.1
1501455535.8,286047001.6,N,1.1
1501455555.6,286047002.0,N,1.1
1501455575.5,286047002.7,N,1.2
1501455595.3,286046999.8,N,1.2
